Weather History for Corpus Christi, TX

Change the Weather History Date:

Tuesday, April 9, 2013

  Actual Average Record
Temperature  
Mean Temperature 82 °F 71 °F  
Max Temperature 90 °F 81 °F 98 °F (1963)
Min Temperature 73 °F 61 °F 40 °F (1973)
Degree Days  
Heating Degree Days 0 1  
Month to date heating degree days 5 9  
Since 1 July heating degree days 521 890  
Cooling Degree Days 17 7  
Month to date cooling degree days 72 57  
Year to date cooling degree days 373 248  
Growing Degree Days 32 (Base 50)    
Moisture  
Dew Point 69 °F    
Average Humidity 67    
Maximum Humidity 84    
Minimum Humidity 50    
Precipitation  
Precipitation 0.00 in 0.05 in 1.89 in (1910)
Month to date precipitation 0.01 0.48  
Year to date precipitation 1.76 5.84  
Snow  
Snow 0.00 in - - ()
Month to date snowfall 0.0  
Since 1 July snowfall 0.0  
Snow Depth 0.00 in    
Sea Level Pressure  
Sea Level Pressure 29.65 in    
Wind  
Wind Speed 26 mph (SSE)    
Max Wind Speed 40 mph    
Max Gust Speed 46 mph    
Visibility 10 miles    
Events      
T = Trace of Precipitation, MM = Missing Value Source: NWS Daily Summary

Daily Weather History Graph

Daily Weather History Graph

Search for Another Location

Airport:

Trip Planner

Search our weather history database for the weather conditions in past years. The results will help you decide how hot, cold, wet, or windy it might be!

Date:

Astronomy

Apr. 09, 2013 Rise Set
Actual Time 7:11 AM CDT 7:52 PM CDT
Civil Twilight 6:47 AM CDT 8:15 PM CDT
Nautical Twilight 6:19 AM CDT 8:43 PM CDT
Astronomical Twilight 5:51 AM CDT 9:12 PM CDT
Moon 6:32 AM CDT (4/9) 7:28 PM CDT (4/9)
Length of Visible Light 13h 28m
Length of Day
12h 40m
Waning Crescent, 1% of the Moon is Illuminated
Apr 9
Waning Crescent
Apr 10
New
Apr 18
First Quarter
Apr 25
Full
May 2
Last Quarter

Hourly Weather History & Observations

Time (CDT) Temp. Heat Index Dew Point Humidity Pressure Visibility Wind Dir Wind Speed Gust Speed Precip Events Conditions
12:51 AM 75.0 °F - 68.0 °F 79% 29.71 in 10.0 mi SSE 24.2 mph 38.0 mph N/A   Overcast
1:51 AM 75.0 °F - 68.0 °F 79% 29.70 in 10.0 mi SSE 24.2 mph 32.2 mph N/A   Overcast
2:51 AM 73.9 °F - 68.0 °F 82% 29.68 in 10.0 mi SSE 20.7 mph 28.8 mph N/A   Overcast
3:25 AM 73.4 °F - 68.0 °F 83% 29.67 in 10.0 mi SSE 23.0 mph 29.9 mph N/A   Mostly Cloudy
3:51 AM 73.0 °F - 68.0 °F 84% 29.66 in 10.0 mi SSE 19.6 mph 26.5 mph N/A   Overcast
4:51 AM 73.9 °F - 68.0 °F 82% 29.65 in 10.0 mi SSE 18.4 mph 28.8 mph N/A   Overcast
5:51 AM 73.0 °F - 66.9 °F 81% 29.63 in 10.0 mi SE 18.4 mph - N/A   Mostly Cloudy
6:51 AM 73.0 °F - 66.9 °F 81% 29.65 in 10.0 mi SSE 19.6 mph 24.2 mph N/A   Mostly Cloudy
7:51 AM 73.0 °F - 66.9 °F 81% 29.67 in 10.0 mi SSE 18.4 mph 25.3 mph N/A   Overcast
8:08 AM 73.4 °F - 66.2 °F 78% 29.68 in 10.0 mi SSE 17.3 mph - N/A   Overcast
8:26 AM 73.4 °F - 68.0 °F 83% 29.68 in 10.0 mi SSE 20.7 mph - N/A   Overcast
8:51 AM 75.0 °F - 68.0 °F 79% 29.68 in 10.0 mi SSE 24.2 mph 29.9 mph N/A   Mostly Cloudy
9:47 AM 78.8 °F - 68.0 °F 69% 29.69 in 10.0 mi SSE 24.2 mph 32.2 mph N/A   Mostly Cloudy
9:51 AM 79.0 °F - 68.0 °F 69% 29.69 in 10.0 mi SSE 25.3 mph 32.2 mph N/A   Mostly Cloudy
10:51 AM 82.0 °F 84.9 °F 68.0 °F 62% 29.70 in 10.0 mi SSE 25.3 mph 33.4 mph N/A   Mostly Cloudy
11:33 AM 84.2 °F 88.4 °F 69.8 °F 62% 29.70 in 10.0 mi SSE 25.3 mph 33.4 mph N/A   Mostly Cloudy
11:51 AM 84.9 °F 88.8 °F 69.1 °F 59% 29.70 in 10.0 mi SSE 23.0 mph 31.1 mph N/A   Scattered Clouds
12:51 PM 87.1 °F 90.6 °F 68.0 °F 53% 29.67 in 10.0 mi SSE 24.2 mph 32.2 mph N/A   Partly Cloudy
1:51 PM 89.1 °F 92.9 °F 68.0 °F 50% 29.63 in 10.0 mi SSE 26.5 mph 36.8 mph N/A   Partly Cloudy
2:51 PM 90.0 °F 93.6 °F 68.0 °F 48% 29.60 in 10.0 mi SSE 31.1 mph 40.3 mph N/A   Clear
3:51 PM 89.1 °F 92.9 °F 68.0 °F 50% 29.57 in 9.0 mi SE 33.4 mph 39.1 mph N/A   Clear
4:51 PM 87.1 °F 91.3 °F 69.1 °F 55% 29.57 in 9.0 mi SSE 36.8 mph 41.4 mph N/A   Clear
5:51 PM 84.9 °F 88.8 °F 69.1 °F 59% 29.57 in 9.0 mi SSE 38.0 mph 46.0 mph N/A   Clear
6:51 PM 81.0 °F 84.1 °F 69.1 °F 67% 29.57 in 9.0 mi SSE 36.8 mph 44.9 mph N/A   Partly Cloudy
7:45 PM 78.8 °F - 69.8 °F 74% 29.59 in 8.0 mi SSE 31.1 mph 41.4 mph N/A   Mostly Cloudy
7:51 PM 78.1 °F - 70.0 °F 76% 29.59 in 8.0 mi SSE 31.1 mph 39.1 mph N/A   Mostly Cloudy
8:34 PM 77.0 °F - 69.8 °F 78% 29.59 in 8.0 mi SSE 31.1 mph 42.6 mph N/A   Overcast
8:49 PM 77.0 °F - 69.8 °F 78% 29.62 in 9.0 mi SSE 31.1 mph 39.1 mph N/A   Overcast
8:51 PM 77.0 °F - 70.0 °F 79% 29.62 in 9.0 mi SSE 28.8 mph 39.1 mph N/A   Overcast
9:29 PM 77.0 °F - 69.8 °F 78% 29.63 in 9.0 mi SSE 29.9 mph 40.3 mph N/A   Overcast
9:51 PM 77.0 °F - 70.0 °F 79% 29.64 in 9.0 mi SSE 27.6 mph 41.4 mph N/A   Overcast
10:36 PM 77.0 °F - 69.8 °F 78% 29.67 in 8.0 mi SSE 23.0 mph 34.5 mph N/A   Overcast
10:51 PM 77.0 °F - 70.0 °F 79% 29.67 in 9.0 mi SSE 27.6 mph 38.0 mph N/A   Overcast
11:51 PM 77.0 °F - 70.0 °F 79% 29.67 in 9.0 mi SSE 26.5 mph 33.4 mph N/A   Overcast